SCP
0 0 0 0 0 0 0 0 0 0 0 0 0 0 0 0 0 0 0 0 0 0 0 0 0 0 0 0 0 0 0 0 0 0 0 0 0 0
0 0 0 0 0 0 0 0 0 0 0 0 0 0 0 0 0 0 0 0 0 0 0 0 0 0 0 0 0 0 0 0 0 0 0 0 0 0
0 0 0 0 0 1 1 1 0 0 0 0 0 0 0 0 0 0 0 0 0 0 0 0 0 0 0 0 0 0 0 0 0 0 0 0 0 0
0 0 0 0 0 1 1 0 0 0 0 0 0 0 0 0 0 0 0 0 0 0 0 0 0 0 0 0 0 0 0 0 0 0 0 0 0 0
0 0 0 0 0 0 0 0 0 0 0 0 0 0 0 0 0 0 0 0 0 0 0 0 0 0 0 0 0 0 0 0 0 0 0 0 0 0
0 0 0 0 0 0 0 0 0 0 0 0 0 0 0 0 0 0 0 0 0 0 0 0 0 0 0 0 0 0 0 0 0 0 0 0 0 0
0 0 0 0 0 0 0 0 0 0 0 0 0 0 0 0 0 0 0 0 0 0 0 0 0 0 0 0 0 0 0 0 0 0 0 0 0 0
0 0 0 0 0 0 0 0 0 0 0 0 0 0 0 0 0 0 0 0 0 0 0 0 0 0 0 0 0 0 0 0 0 0 0 0 0 0
0 0 0 0 0 0 0 0 0 0 0 0 0 0 0 0 0 0 0 0 0 0 0 0 0 0 0 0 0 0 0 0 0 0 0 0 0 0
0 0 0 0 0 0 0 0 0 0 0 0 0 0 0 0 0 0 0 0 0 0 0 0 0 0 0 0 0 0 0 0 0 0 0 0 0 0
0 0 0 0 0 0 0 0 0 0 0 0 0 0 0 0 0 0 0 0 0 0 0 0 0 0 0 0 0 0 0 0 0 0 0 0 0 0
0 0 0 0 0 0 0 0 0 0 0 0 0 0 0 0 0 0 0 0 0 0 0 0 0 0 0 0 0 0 0 0 0 0 0 0 0 0
0 0 0 0 0 0 0 0 0 0 0 0 0 0 0 0 0 0 0 0 0 0 0 0 0 0 0 0 0 0 0 0 0 0 0 0 0 0
0 0 0 0 0 0 0 0 0 0 0 0 0 0 0 0 0 0 0 0 0 0 0 0 0 0 0 0 0 0 0 0 0 0 0 0 0 0
0 0 0 0 0 0 0 0 0 0 0 0 0 0 0 0 0 0 0 0 0 0 0 0 0 0 0 0 0 0 0 0 0 0 0 0 0 0
0 0 0 0 0 0 0 0 0 0 0 0 0 0 0 0 0 0 0 0 0 0 0 0 0 0 0 0 0 0 0 0 0 0 0 0 0 0
0 0 0 0 0 0 0 0 0 0 0 0 0 0 0 0 0 0 0 0 0 0 0 0 0 0 0 0 0 0 0 0 0 0 0 0 0 0
0 0 0 0 0 0 0 0 0 0 0 0 0 0 0 0 0 0 0 0 0 0 0 0 0 0 0 0 0 0 0 0 0 0 0 0 0 0
0 0 0 0 0 0 0 0 0 0 0 0 0 0 0 0 0 0 0 0 0 0 0 0 0 0 0 0 0 0 0 0 0 -0 -0 0 0 0
0 0 0 0 0 0 0 0 0 0 0 0 0 0 0 0 0 0 0 0 0 0 0 0 0 0 0 0 0 0 0 0 0 -0 -0 0 0 0
0 0 0 0 0 0 0 0 0 0 0 0 0 0 0 0 0 0 0 0 0 0 0 0 0 0 0 0 0 0 0 0 0 -0 -0 -0 0 0
0 0 0 0 0 0 0 0 0 0 0 0 0 0 0 0 0 0 0 0 0 0 0 0 0 0 0 0 0 0 0 0 0 0 -0 0 0 0
0 0 0 0 0 0 0 0 0 0 0 0 0 0 0 0 0 0 0 0 0 0 0 0 0 0 0 0 0 0 0 0 0 0 0 0 0 0
Wind_Speed_500mb
85 79 75 71 63 63 58 59 59 49 48 55 61 56 76 77 76 79 67 69 69 66 60 57 60 67 68 69 66 64 64 65 69 72 74 77 81 86
86 95 90 85 81 73 72 75 71 69 67 63 73 71 77 81 82 77 69 70 64 66 63 63 65 68 67 63 61 61 61 62 65 70 74 79 83 87
90 89 89 90 85 80 81 82 71 80 83 96 83 72 86 77 78 76 69 67 68 67 64 67 65 63 62 59 57 57 58 63 68 70 73 77 81 86
97 90 88 82 83 83 81 88 89 86 90 89 82 87 89 96 82 79 76 71 68 54 59 69 63 58 56 54 55 56 59 63 64 68 72 76 81 86
96 94 93 89 90 97 101 92 90 114 97 73 86 83 94 86 87 82 80 70 61 57 64 67 63 58 56 54 55 56 59 61 65 68 71 75 80 86
100 100 99 98 104 110 102 104 110 109 112 95 89 90 101 95 89 81 77 71 62 46 40 47 51 51 51 53 52 55 58 62 63 64 70 74 80 81
102 102 103 112 115 111 109 111 118 114 106 106 98 98 102 97 97 89 76 55 38 40 42 41 39 42 44 49 51 54 61 65 68 68 71 75 75 72
95 100 104 103 100 106 98 92 92 109 112 114 104 100 97 100 88 69 57 51 49 40 32 35 37 40 44 47 44 54 61 65 65 67 68 67 67 67
88 93 93 96 97 91 90 80 86 98 98 89 90 91 92 74 52 51 49 41 35 29 28 37 41 48 46 35 41 58 65 64 64 57 58 62 63 63
93 99 102 106 96 89 87 85 83 94 92 85 70 67 52 46 46 42 34 27 30 35 41 39 35 45 39 49 60 64 64 52 47 50 52 54 60 61
94 95 97 103 100 90 85 79 75 70 53 45 43 42 42 39 33 28 23 31 30 28 28 33 38 52 41 57 56 34 44 48 42 45 50 58 58 56
89 90 93 87 77 70 57 54 52 46 39 40 28 25 25 19 13 21 27 28 29 25 29 39 29 30 38 29 36 35 46 46 43 50 49 52 46 38
65 63 57 54 43 35 30 35 36 36 35 31 26 12 10 12 17 23 31 34 35 39 32 40 34 35 47 58 52 41 50 50 29 38 39 50 37 26
37 32 25 19 22 29 32 32 31 20 10 8 4 9 20 22 21 26 33 39 44 45 47 49 58 57 49 59 63 46 42 48 43 44 44 45 44 31
23 26 34 35 32 30 20 11 9 2 4 6 10 11 21 27 31 38 40 40 40 42 45 50 55 54 49 55 61 56 55 55 47 45 45 45 40 35
33 34 30 20 14 7 2 1 5 5 5 11 17 25 30 30 28 27 31 33 38 38 34 35 42 43 50 53 50 58 51 50 49 49 49 45 44 42
19 17 12 8 7 5 6 10 12 13 13 18 19 20 23 27 27 25 31 31 33 36 36 33 32 37 44 48 54 55 57 56 55 54 47 54 49 43
14 12 10 10 8 7 9 12 14 13 16 19 19 21 23 25 26 29 30 32 33 33 34 33 33 36 41 47 44 54 52 53 53 55 56 63 45 44
14 13 11 7 4 1 3 5 3 17 22 20 19 20 21 22 26 28 30 31 34 34 32 33 34 36 44 52 43 34 42 47 61 63 46 54 50 41
13 10 7 5 4 5 6 7 9 12 13 16 19 21 24 25 28 30 32 34 35 35 37 36 35 36 43 43 52 57 52 58 47 56 55 28 41 34
20 17 13 11 9 7 9 11 16 16 22 20 21 22 24 28 32 33 35 38 40 39 40 38 37 42 48 50 59 59 50 42 46 51 50 48 41 34
15 10 8 5 7 9 13 16 17 19 21 24 25 27 29 30 32 34 34 35 36 38 40 42 40 40 43 48 54 56 57 50 51 52 55 54 28 26
11 9 10 11 13 13 14 17 18 19 21 23 25 25 27 30 30 30 31 33 34 37 38 40 37 36 39 43 51 57 53 53 52 47 26 40 25 25
Wind_Direction_500mb
262 247 250 253 252 254 253 247 247 251 254 260 251 259 257 242 239 250 247 253 250 250 254 260 266 269 270 274 274 273 272 274 275 277 279 281 281 281
257 248 249 256 263 260 253 252 254 266 258 265 261 263 255 247 241 245 251 251 251 251 254 262 268 270 270 271 271 271 273 275 278 280 282 282 282 282
245 248 251 257 258 258 253 256 255 272 275 276 250 253 233 240 239 244 243 243 249 252 254 264 269 270 268 268 268 271 275 279 280 282 284 285 286 285
247 251 255 255 253 254 247 252 269 274 287 258 261 243 243 237 243 242 242 241 245 249 263 270 273 268 264 264 268 272 276 278 280 283 286 286 287 288
247 248 249 251 252 255 261 254 269 273 276 266 257 244 236 233 232 240 239 238 241 249 261 265 268 263 264 266 269 274 275 280 283 285 286 287 289 291
248 249 252 252 252 259 262 267 274 269 262 270 255 248 246 243 241 238 238 237 243 243 252 256 264 267 266 268 270 274 278 281 287 287 288 293 297 298
250 251 251 253 257 263 263 269 271 269 264 260 250 245 242 241 243 237 230 233 238 234 242 254 261 269 267 270 275 279 280 292 295 295 296 296 296 298
249 251 258 262 264 269 269 267 271 273 260 259 250 251 250 243 238 227 224 222 222 241 257 250 250 258 271 278 279 279 286 294 291 292 292 293 295 297
251 258 263 264 267 271 269 267 266 256 252 255 251 243 239 232 225 222 226 230 235 229 257 253 254 269 280 279 273 275 289 291 291 291 292 293 295 296
260 259 256 263 268 267 267 262 260 252 247 247 244 240 229 218 215 224 226 232 237 239 245 262 267 278 271 262 270 284 289 282 286 291 295 294 292 293
260 262 265 265 266 267 265 262 253 235 229 233 221 218 229 222 223 227 242 246 254 253 259 266 262 277 273 269 292 286 278 285 292 290 295 298 299 294
260 258 257 256 258 262 262 252 231 212 205 204 206 201 211 223 228 236 232 235 246 266 275 256 261 270 291 275 271 255 272 283 276 280 283 297 297 293
253 252 252 253 249 248 224 212 208 197 195 206 205 226 258 245 233 248 254 249 249 252 256 265 267 262 266 283 284 276 275 291 289 290 289 291 287 278
242 233 221 210 188 176 178 178 186 184 195 193 190 224 253 266 257 250 252 258 260 262 259 254 266 275 276 278 280 286 278 281 282 265 272 271 273 267
191 181 162 159 168 170 170 190 206 184 255 258 266 251 237 249 262 270 277 279 276 269 269 272 274 278 273 271 279 281 289 290 288 277 262 264 261 261
153 153 153 151 139 131 106 310 331 319 267 249 251 262 272 281 288 286 281 279 279 280 278 272 272 271 271 270 275 281 283 280 280 273 269 267 253 250
130 123 114 96 67 41 351 329 320 297 281 275 281 286 288 293 296 289 285 287 283 285 287 285 282 278 277 277 277 277 284 286 289 290 277 269 247 249
113 94 78 59 47 22 353 333 320 317 293 301 304 302 296 291 290 285 291 293 290 290 289 290 289 288 286 282 276 284 283 286 285 279 276 272 244 246
77 82 78 75 35 9 290 284 299 290 304 309 311 311 308 304 301 299 295 290 289 289 288 289 289 288 289 285 289 275 280 275 276 278 283 247 243 231
73 71 64 52 13 9 2 350 334 323 314 309 311 312 310 307 303 299 297 295 292 292 291 288 286 284 285 292 294 286 266 287 291 285 275 281 236 226
59 63 65 66 50 24 324 322 319 319 322 333 322 313 304 302 299 296 294 292 292 292 290 289 287 288 296 296 291 293 296 286 280 283 282 280 221 224
87 76 57 17 353 339 333 326 319 316 311 309 305 304 305 303 302 301 298 296 293 291 290 291 293 294 292 288 287 291 293 294 284 275 262 253 243 201
40 44 9 350 339 328 327 315 313 311 308 307 309 308 306 306 305 302 298 297 297 295 295 295 296 293 291 290 292 291 291 293 301 300 259 234 214 208
Wind_Speed_850mb
85 79 75 71 63 63 58 59 59 49 48 55 61 56 76 77 76 79 67 69 69 66 60 57 60 67 68 69 66 64 64 65 69 72 74 77 81 86
86 95 90 85 81 73 72 75 71 69 67 63 73 71 77 81 82 77 69 70 64 66 63 63 65 68 67 63 61 61 61 62 65 70 74 79 83 87
90 89 89 90 85 80 81 82 71 80 83 96 83 72 86 77 78 76 69 67 68 67 64 67 65 63 62 59 57 57 58 63 68 70 73 77 81 86
97 90 88 82 83 83 81 88 89 86 90 89 82 87 89 96 82 79 76 71 68 54 59 69 63 58 56 54 55 56 59 63 64 68 72 76 81 86
96 94 93 89 90 97 101 92 90 114 97 73 86 83 94 86 87 82 80 70 61 57 64 67 63 58 56 54 55 56 59 61 65 68 71 75 80 86
100 100 99 98 104 110 102 104 110 109 112 95 89 90 101 95 89 81 77 71 62 46 40 47 51 51 51 53 52 55 58 62 63 64 70 74 80 81
102 102 103 112 115 111 109 111 118 114 106 106 98 98 102 97 97 89 76 55 38 40 42 41 39 42 44 49 51 54 61 65 68 68 71 75 75 72
95 100 104 103 100 106 98 92 92 109 112 114 104 100 97 100 88 69 57 51 49 40 32 35 37 40 44 47 44 54 61 65 65 67 68 67 67 67
88 93 93 96 97 91 90 80 86 98 98 89 90 91 92 74 52 51 49 41 35 29 28 37 41 48 46 35 41 58 65 64 64 57 58 62 63 63
93 99 102 106 96 89 87 85 83 94 92 85 70 67 52 46 46 42 34 27 30 35 41 39 35 45 39 49 60 64 64 52 47 50 52 54 60 61
94 95 97 103 100 90 85 79 75 70 53 45 43 42 42 39 33 28 23 31 30 28 28 33 38 52 41 57 56 34 44 48 42 45 50 58 58 56
89 90 93 87 77 70 57 54 52 46 39 40 28 25 25 19 13 21 27 28 29 25 29 39 29 30 38 29 36 35 46 46 43 50 49 52 46 38
65 63 57 54 43 35 30 35 36 36 35 31 26 12 10 12 17 23 31 34 35 39 32 40 34 35 47 58 52 41 50 50 29 38 39 50 37 26
37 32 25 19 22 29 32 32 31 20 10 8 4 9 20 22 21 26 33 39 44 45 47 49 58 57 49 59 63 46 42 48 43 44 44 45 44 31
23 26 34 35 32 30 20 11 9 2 4 6 10 11 21 27 31 38 40 40 40 42 45 50 55 54 49 55 61 56 55 55 47 45 45 45 40 35
33 34 30 20 14 7 2 1 5 5 5 11 17 25 30 30 28 27 31 33 38 38 34 35 42 43 50 53 50 58 51 50 49 49 49 45 44 42
19 17 12 8 7 5 6 10 12 13 13 18 19 20 23 27 27 25 31 31 33 36 36 33 32 37 44 48 54 55 57 56 55 54 47 54 49 43
14 12 10 10 8 7 9 12 14 13 16 19 19 21 23 25 26 29 30 32 33 33 34 33 33 36 41 47 44 54 52 53 53 55 56 63 45 44
14 13 11 7 4 1 3 5 3 17 22 20 19 20 21 22 26 28 30 31 34 34 32 33 34 36 44 52 43 34 42 47 61 63 46 54 50 41
13 10 7 5 4 5 6 7 9 12 13 16 19 21 24 25 28 30 32 34 35 35 37 36 35 36 43 43 52 57 52 58 47 56 55 28 41 34
20 17 13 11 9 7 9 11 16 16 22 20 21 22 24 28 32 33 35 38 40 39 40 38 37 42 48 50 59 59 50 42 46 51 50 48 41 34
15 10 8 5 7 9 13 16 17 19 21 24 25 27 29 30 32 34 34 35 36 38 40 42 40 40 43 48 54 56 57 50 51 52 55 54 28 26
11 9 10 11 13 13 14 17 18 19 21 23 25 25 27 30 30 30 31 33 34 37 38 40 37 36 39 43 51 57 53 53 52 47 26 40 25 25
Wind_Direction_850mb
262 247 250 253 252 254 253 247 247 251 254 260 251 259 257 242 239 250 247 253 250 250 254 260 266 269 270 274 274 273 272 274 275 277 279 281 281 281
257 248 249 256 263 260 253 252 254 266 258 265 261 263 255 247 241 245 251 251 251 251 254 262 268 270 270 271 271 271 273 275 278 280 282 282 282 282
245 248 251 257 258 258 253 256 255 272 275 276 250 253 233 240 239 244 243 243 249 252 254 264 269 270 268 268 268 271 275 279 280 282 284 285 286 285
247 251 255 255 253 254 247 252 269 274 287 258 261 243 243 237 243 242 242 241 245 249 263 270 273 268 264 264 268 272 276 278 280 283 286 286 287 288
247 248 249 251 252 255 261 254 269 273 276 266 257 244 236 233 232 240 239 238 241 249 261 265 268 263 264 266 269 274 275 280 283 285 286 287 289 291
248 249 252 252 252 259 262 267 274 269 262 270 255 248 246 243 241 238 238 237 243 243 252 256 264 267 266 268 270 274 278 281 287 287 288 293 297 298
250 251 251 253 257 263 263 269 271 269 264 260 250 245 242 241 243 237 230 233 238 234 242 254 261 269 267 270 275 279 280 292 295 295 296 296 296 298
249 251 258 262 264 269 269 267 271 273 260 259 250 251 250 243 238 227 224 222 222 241 257 250 250 258 271 278 279 279 286 294 291 292 292 293 295 297
251 258 263 264 267 271 269 267 266 256 252 255 251 243 239 232 225 222 226 230 235 229 257 253 254 269 280 279 273 275 289 291 291 291 292 293 295 296
260 259 256 263 268 267 267 262 260 252 247 247 244 240 229 218 215 224 226 232 237 239 245 262 267 278 271 262 270 284 289 282 286 291 295 294 292 293
260 262 265 265 266 267 265 262 253 235 229 233 221 218 229 222 223 227 242 246 254 253 259 266 262 277 273 269 292 286 278 285 292 290 295 298 299 294
260 258 257 256 258 262 262 252 231 212 205 204 206 201 211 223 228 236 232 235 246 266 275 256 261 270 291 275 271 255 272 283 276 280 283 297 297 293
253 252 252 253 249 248 224 212 208 197 195 206 205 226 258 245 233 248 254 249 249 252 256 265 267 262 266 283 284 276 275 291 289 290 289 291 287 278
242 233 221 210 188 176 178 178 186 184 195 193 190 224 253 266 257 250 252 258 260 262 259 254 266 275 276 278 280 286 278 281 282 265 272 271 273 267
191 181 162 159 168 170 170 190 206 184 255 258 266 251 237 249 262 270 277 279 276 269 269 272 274 278 273 271 279 281 289 290 288 277 262 264 261 261
153 153 153 151 139 131 106 310 331 319 267 249 251 262 272 281 288 286 281 279 279 280 278 272 272 271 271 270 275 281 283 280 280 273 269 267 253 250
130 123 114 96 67 41 351 329 320 297 281 275 281 286 288 293 296 289 285 287 283 285 287 285 282 278 277 277 277 277 284 286 289 290 277 269 247 249
113 94 78 59 47 22 353 333 320 317 293 301 304 302 296 291 290 285 291 293 290 290 289 290 289 288 286 282 276 284 283 286 285 279 276 272 244 246
77 82 78 75 35 9 290 284 299 290 304 309 311 311 308 304 301 299 295 290 289 289 288 289 289 288 289 285 289 275 280 275 276 278 283 247 243 231
73 71 64 52 13 9 2 350 334 323 314 309 311 312 310 307 303 299 297 295 292 292 291 288 286 284 285 292 294 286 266 287 291 285 275 281 236 226
59 63 65 66 50 24 324 322 319 319 322 333 322 313 304 302 299 296 294 292 292 292 290 289 287 288 296 296 291 293 296 286 280 283 282 280 221 224
87 76 57 17 353 339 333 326 319 316 311 309 305 304 305 303 302 301 298 296 293 291 290 291 293 294 292 288 287 291 293 294 284 275 262 253 243 201
40 44 9 350 339 328 327 315 313 311 308 307 309 308 306 306 305 302 298 297 297 295 295 295 296 293 291 290 292 291 291 293 301 300 259 234 214 208